This demonstration page uses our WeatherBlox Daily Observations layout. Learn more.

Left ArrowRight Arrow

36.19886, -115.1175

Hourly Observations for September 20, 2021

Temp ( °F °C ) Dew Point ( °F °C ) Humidity (%) Winds ( mph kmh ) Pressure ( in mb ) Visibility ( mi km ) Precip ( " mm )
12:53 am 00:53 Clear 79 26.1 35 1.7 20 20 WSW 6 9 29.83 1010 10 16 N/A
1:53 am 01:53 Clear 77 25 33 0.6 20 20 N 7 11 29.85 1011 10 16 N/A
2:53 am 02:53 Clear 77 25 33 0.6 20 20 N 8 13 29.86 1011 10 16 N/A
3:53 am 03:53 Clear 80 26.7 30 -1.1 16 16 NNE 20 31 29.89 1012 10 16 N/A
4:53 am 04:53 Clear 77 25 28 -2.2 16 16 N 12 19 29.91 1013 10 16 N/A
5:53 am 05:53 Clear 76 24.4 27 -2.8 16 16 N 8 13 29.94 1014 10 16 N/A
6:53 am 06:53 Sunny 74 23.3 28 -2.2 18 18 N 14 22 29.98 1015 10 16 N/A
7:53 am 07:53 Sunny 77 25 28 -2.2 16 16 NNW 15 24 30.01 1016 10 16 N/A
8:53 am 08:53 Sunny 76 24.4 30 -1.1 18 18 SE 5 7 30.04 1017 10 16 N/A
9:53 am 09:53 Sunny 80 26.7 29 -1.7 15 15 NNW 13 20 30.05 1018 10 16 N/A
10:53 am 10:53 Sunny 82 27.8 29 -1.7 14 14 N N/A 30.06 1018 10 16 N/A
11:53 am 11:53 Sunny 85 29.4 29 -1.7 13 13 N 7 11 30.06 1018 10 16 N/A
12:53 pm 12:53 Sunny 85 29.4 28 -2.2 13 13 NNW 6 9 30.06 1018 10 16 N/A
1:53 pm 13:53 Sunny 87 30.6 30 -1.1 13 13 E 12 19 30.04 1017 10 16 N/A
2:53 pm 14:53 Sunny 88 31.1 29 -1.7 12 12 E 8 13 30.03 1017 10 16 N/A
3:53 pm 15:53 Sunny 87 30.6 28 -2.2 12 12 N N/A 30.01 1016 10 16 N/A
4:53 pm 16:53 Sunny 89 31.7 28 -2.2 11 11 VRB 3 6 30.00 1016 10 16 N/A
5:53 pm 17:53 Sunny 87 30.6 27 -2.8 11 11 E 9 15 30.00 1016 10 16 N/A
6:53 pm 18:53 Clear 84 28.9 25 -3.9 11 11 E 8 13 30.02 1017 10 16 N/A
7:53 pm 19:53 Clear 83 28.3 26 -3.3 12 12 N N/A 30.04 1017 10 16 N/A
8:53 pm 20:53 Clear 83 28.3 27 -2.8 13 13 N N/A 30.06 1018 10 16 N/A
9:53 pm 21:53 Clear 79 26.1 29 -1.7 16 16 NNE 3 6 30.09 1019 10 16 N/A
10:53 pm 22:53 Clear 77 25 23 -5 13 13 SE 6 9 30.09 1019 10 16 N/A
11:53 pm 23:53 Clear 75 23.9 29 -1.7 18 18 W 3 6 30.11 1020 10 16 N/A

Powered by AerisWeather